Location: *
(53.9002°N, 27.5624°E)
Time: 02:56:15
(UTC+00:00)

Cosmos 1072 Rocket - Pass Details

Date: 12 November 2019
Orbit: 948 x 1009 km, 82.9° (Epoch: 07 December)

Event Time Altitude Azimuth Distance (km) Brightness Sun altitude
Rises 16:28:55 0° 348° (NNW) 3,635 7.6 -19.4°
Reaches altitude 10° 16:31:25 10° 348° (NNW) 2,685 6.9 -19.7°
Maximum altitude 16:37:33 82° 262° (W) 967 4.5 -20.6°
Drops below altitude 10° 16:43:41 10° 176° (S) 2,685 6.8 -21.5°
Sets 16:46:11 0° 175° (S) 3,634 7.5 -21.9°
